, AK

(GMT )
Kivalina

Weather History for PAVL - February, 2013

Change the Weather History Date:

Wednesday, February 27, 2013

  Actual Average Record
Temperature  
Mean Temperature -4 °F -  
Max Temperature 6 °F - - ()
Min Temperature -15 °F - - ()
Degree Days  
Heating Degree Days 70    
Moisture  
Dew Point -10 °F    
Average Humidity 79    
Maximum Humidity 86    
Minimum Humidity 68    
Precipitation  
Precipitation 0.00 in - - ()
Sea Level Pressure  
Sea Level Pressure 29.55 in    
Wind  
Wind Speed 8 mph (NE)    
Max Wind Speed 16 mph    
Max Gust Speed -    
Visibility 10 miles    
Events      
T = Trace of Precipitation, MM = Missing Value Source: NWS Daily Summary

Daily Weather History Graph

Daily Weather History Graph

Search for Another Location

Airport or City:

Trip Planner

Search our weather history database for the weather conditions in past years. The results will help you decide how hot, cold, wet, or windy it might be!

Date:

Astronomy

Feb. 27, 2013 Rise Set
Actual Time 9:22 AM AKST 7:00 PM AKST
Civil Twilight 8:26 AM AKST 7:56 PM AKST
Nautical Twilight 7:23 AM AKST 9:00 PM AKST
Astronomical Twilight 6:17 AM AKST 10:06 PM AKST
Moon 11:14 PM AKST (2/27) 8:45 AM AKST (2/27)
Length of Visible Light 11h 30m
Length of Day
9h 38m
Waning Gibbous, 95% of the Moon is Illuminated
Feb 27
Waning Gibbous
Mar 4
Last Quarter
Mar 11
New
Mar 19
First Quarter
Mar 27
Full

Hourly Weather History & Observations

Time (AKST) Temp. Windchill Dew Point Humidity Pressure Visibility Wind Dir Wind Speed Gust Speed Precip Events Conditions
12:53 AM -9.9 °F -24.9 °F -18.0 °F 68% 29.75 in 10.0 mi NW 6.9 mph - N/A   Clear
1:53 AM -15.0 °F -34.8 °F -18.9 °F 82% 29.72 in 10.0 mi NNW 10.4 mph - N/A   Clear
3:53 AM -11.9 °F -27.3 °F -15.0 °F 86% 29.67 in 10.0 mi North 6.9 mph - N/A   Clear
4:53 AM -6.0 °F -22.6 °F -9.9 °F 83% 29.65 in 10.0 mi North 9.2 mph - N/A   Clear
5:53 AM -6.0 °F -23.6 °F -9.9 °F 83% 29.64 in 10.0 mi North 10.4 mph - N/A   Clear
6:53 AM -8.0 °F -28.0 °F -11.0 °F 86% 29.63 in 10.0 mi NNE 12.7 mph - N/A   Clear
8:53 AM -2.0 °F -20.5 °F -6.0 °F 83% 29.58 in 10.0 mi NNE 12.7 mph - N/A   Clear
9:53 AM -0.9 °F -18.3 °F -5.1 °F 83% 29.57 in 10.0 mi NNE 11.5 mph - N/A   Clear
10:53 AM 3.0 °F -15.5 °F -2.9 °F 76% 29.55 in 10.0 mi NNE 15.0 mph - N/A   Clear
11:53 AM 3.9 °F -12.2 °F -2.9 °F 73% 29.54 in 10.0 mi NNE 11.5 mph - N/A   Clear
12:53 PM 6.1 °F -12.2 °F -0.9 °F 73% 29.52 in 10.0 mi NNE 16.1 mph - N/A   Clear
1:53 PM 6.1 °F - -0.9 °F 73% 29.52 in 10.0 mi Calm Calm - N/A   Clear
2:53 PM -5.1 °F -23.5 °F -9.0 °F 83% 29.52 in 8.0 mi SSE 11.5 mph - N/A   Clear
3:53 PM -8.0 °F -21.0 °F -11.9 °F 83% 29.51 in 10.0 mi East 5.8 mph - N/A   Clear
4:53 PM -9.9 °F -26.3 °F -14.1 °F 82% 29.50 in 9.0 mi NE 8.1 mph - N/A   Clear
5:53 PM -7.1 °F - -11.9 °F 79% 29.49 in 9.0 mi Calm Calm - N/A   Clear
6:53 PM -11.0 °F -22.8 °F -16.1 °F 78% 29.46 in 9.0 mi NE 4.6 mph - N/A   Clear
7:53 PM -9.0 °F -20.4 °F -14.1 °F 79% 29.45 in 10.0 mi East 4.6 mph - N/A   Clear
8:53 PM -7.1 °F -15.9 °F -11.9 °F 79% 29.44 in 10.0 mi South 3.5 mph - N/A   Clear
9:53 PM -5.1 °F - -9.0 °F 83% 29.44 in 10.0 mi Calm Calm - N/A   Clear
10:53 PM -8.0 °F - -14.1 °F 75% 29.44 in 10.0 mi Calm Calm - N/A   Clear
11:53 PM -11.0 °F -22.8 °F -16.1 °F 78% 29.44 in 10.0 mi ENE 4.6 mph - N/A   Clear